Year,Month,Day,Hour,Minute,Value (Times are PST for temperature in C)
2012,03,22,00,00,-0.60
2012,03,22,00,01,-0.60
2012,03,22,00,02,-0.50
2012,03,22,00,03,-0.50
2012,03,22,00,04,-0.50
2012,03,22,00,05,-0.50
2012,03,22,00,06,-0.50
2012,03,22,00,07,-0.50
2012,03,22,00,08,-0.40
2012,03,22,00,09,-0.40
2012,03,22,00,10,-0.40
2012,03,22,00,11,-0.40
2012,03,22,00,12,-0.40
2012,03,22,00,13,-0.40
2012,03,22,00,14,-0.40
2012,03,22,00,15,-0.40
2012,03,22,00,16,-0.40
2012,03,22,00,17,-0.40
2012,03,22,00,18,-0.40
2012,03,22,00,19,-0.30
2012,03,22,00,20,-0.30
2012,03,22,00,21,-0.30
2012,03,22,00,22,-0.30
2012,03,22,00,23,-0.30
2012,03,22,00,24,-0.20
2012,03,22,00,25,-0.20
2012,03,22,00,26,-0.20
2012,03,22,00,27,-0.20
2012,03,22,00,28,-0.20
2012,03,22,00,29,-0.20
2012,03,22,00,30,-0.10
2012,03,22,00,31,-0.10
2012,03,22,00,32,-0.10
2012,03,22,00,33,-0.10
2012,03,22,00,34,0.00
2012,03,22,00,35,0.00
2012,03,22,00,36,0.00
2012,03,22,00,37,0.00
2012,03,22,00,38,0.10
2012,03,22,00,39,0.10
2012,03,22,00,40,0.10
2012,03,22,00,41,0.10
2012,03,22,00,42,0.10
2012,03,22,00,43,0.20
2012,03,22,00,44,0.20
2012,03,22,00,45,0.30
2012,03,22,00,46,0.30
2012,03,22,00,47,0.30
2012,03,22,00,48,0.40
2012,03,22,00,49,0.40
2012,03,22,00,50,0.40
2012,03,22,00,51,0.40
2012,03,22,00,52,0.40
2012,03,22,00,53,0.40
2012,03,22,00,54,0.40
2012,03,22,00,55,0.40
2012,03,22,00,56,0.40
2012,03,22,00,57,0.40
2012,03,22,00,58,0.40
2012,03,22,00,59,0.40
2012,03,22,01,00,0.40
2012,03,22,01,01,0.40
2012,03,22,01,02,0.40
2012,03,22,01,03,0.40
2012,03,22,01,04,0.40
2012,03,22,01,05,0.40
2012,03,22,01,06,0.40
2012,03,22,01,07,0.30
2012,03,22,01,08,0.30
2012,03,22,01,09,0.30
2012,03,22,01,10,0.30
2012,03,22,01,11,0.30
2012,03,22,01,12,0.30
2012,03,22,01,13,0.30
2012,03,22,01,14,0.20
2012,03,22,01,15,0.20
2012,03,22,01,16,0.20
2012,03,22,01,17,0.20
2012,03,22,01,18,0.20
2012,03,22,01,19,0.20
2012,03,22,01,20,0.10
2012,03,22,01,21,0.10
2012,03,22,01,22,0.10
2012,03,22,01,23,0.10
2012,03,22,01,24,0.10
2012,03,22,01,25,0.00
2012,03,22,01,26,0.00
2012,03,22,01,27,0.00
2012,03,22,01,28,-0.10
2012,03,22,01,29,-0.10
2012,03,22,01,30,-0.10
2012,03,22,01,31,-0.10
2012,03,22,01,32,-0.10
2012,03,22,01,33,-0.20
2012,03,22,01,34,-0.20
2012,03,22,01,35,-0.20
2012,03,22,01,36,-0.20
2012,03,22,01,37,-0.20
2012,03,22,01,38,-0.30
2012,03,22,01,39,-0.30
2012,03,22,01,40,-0.30
2012,03,22,01,41,-0.30
2012,03,22,01,42,-0.30
2012,03,22,01,43,-0.30
2012,03,22,01,44,-0.30
2012,03,22,01,45,-0.40
2012,03,22,01,46,-0.40
2012,03,22,01,47,-0.40
2012,03,22,01,48,-0.40
2012,03,22,01,49,-0.40
2012,03,22,01,50,-0.40
2012,03,22,01,51,-0.50
2012,03,22,01,52,-0.50
2012,03,22,01,53,-0.50
2012,03,22,01,54,-0.50
2012,03,22,01,55,-0.50
2012,03,22,01,56,-0.50
2012,03,22,01,57,-0.50
2012,03,22,01,58,-0.60
2012,03,22,01,59,-0.60
2012,03,22,02,00,-0.60
2012,03,22,02,01,-0.60
2012,03,22,02,02,-0.60
2012,03,22,02,03,-0.60
2012,03,22,02,04,-0.60
2012,03,22,02,05,-0.60
2012,03,22,02,06,-0.70
2012,03,22,02,07,-0.70
2012,03,22,02,08,-0.70
2012,03,22,02,09,-0.70
2012,03,22,02,10,-0.70
2012,03,22,02,11,-0.70
2012,03,22,02,12,-0.70
2012,03,22,02,13,-0.80
2012,03,22,02,14,-0.80
2012,03,22,02,15,-0.80
2012,03,22,02,16,-0.80
2012,03,22,02,17,-0.80
2012,03,22,02,18,-0.80
2012,03,22,02,19,-0.90
2012,03,22,02,20,-0.90
2012,03,22,02,21,-0.90
2012,03,22,02,22,-0.90
2012,03,22,02,23,-0.90
2012,03,22,02,24,-0.90
2012,03,22,02,25,-1.00
2012,03,22,02,26,-1.00
2012,03,22,02,27,-1.00
2012,03,22,02,28,-1.00
2012,03,22,02,29,-1.10
2012,03,22,02,30,-1.10
2012,03,22,02,31,-1.10
2012,03,22,02,32,-1.10
2012,03,22,02,33,-1.10
2012,03,22,02,34,-1.20
2012,03,22,02,35,-1.20
2012,03,22,02,36,-1.20
2012,03,22,02,37,-1.20
2012,03,22,02,38,-1.20
2012,03,22,02,39,-1.20
2012,03,22,02,40,-1.30
2012,03,22,02,41,-1.30
2012,03,22,02,42,-1.30
2012,03,22,02,43,-1.30
2012,03,22,02,44,-1.30
2012,03,22,02,45,-1.30
2012,03,22,02,46,-1.30
2012,03,22,02,47,-1.30
2012,03,22,02,48,-1.30
2012,03,22,02,49,-1.40
2012,03,22,02,50,-1.40
2012,03,22,02,51,-1.40
2012,03,22,02,52,-1.40
2012,03,22,02,53,-1.40
2012,03,22,02,54,-1.40
2012,03,22,02,55,-1.40
2012,03,22,02,56,-1.50
2012,03,22,02,57,-1.50
2012,03,22,02,58,-1.50
2012,03,22,02,59,-1.60
2012,03,22,03,00,-1.60
2012,03,22,03,01,-1.60
2012,03,22,03,02,-1.60
2012,03,22,03,03,-1.60
2012,03,22,03,04,-1.60
2012,03,22,03,05,-1.60
2012,03,22,03,06,-1.60
2012,03,22,03,07,-1.70
2012,03,22,03,08,-1.70
2012,03,22,03,09,-1.70
2012,03,22,03,10,-1.70
2012,03,22,03,11,-1.70
2012,03,22,03,12,-1.70
2012,03,22,03,13,-1.70
2012,03,22,03,14,-1.70
2012,03,22,03,15,-1.70
2012,03,22,03,16,-1.70
2012,03,22,03,17,-1.80
2012,03,22,03,18,-1.80
2012,03,22,03,19,-1.80
2012,03,22,03,20,-1.80
2012,03,22,03,21,-1.80
2012,03,22,03,22,-1.80
2012,03,22,03,23,-1.80
2012,03,22,03,24,-1.80
2012,03,22,03,25,-1.80
2012,03,22,03,26,-1.80
2012,03,22,03,27,-1.90
2012,03,22,03,28,-1.90
2012,03,22,03,29,-1.90
2012,03,22,03,30,-1.90
2012,03,22,03,31,-1.90
2012,03,22,03,32,-1.90
2012,03,22,03,33,-1.90
2012,03,22,03,34,-2.00
2012,03,22,03,35,-2.00
2012,03,22,03,36,-2.00
2012,03,22,03,37,-2.00
2012,03,22,03,38,-2.00
2012,03,22,03,39,-2.00
2012,03,22,03,40,-2.10
2012,03,22,03,41,-2.10
2012,03,22,03,42,-2.10
2012,03,22,03,43,-2.10
2012,03,22,03,44,-2.10
2012,03,22,03,45,-2.10
2012,03,22,03,46,-2.10
2012,03,22,03,47,-2.10
2012,03,22,03,48,-2.10
2012,03,22,03,49,-2.10
2012,03,22,03,50,-2.20
2012,03,22,03,51,-2.20
2012,03,22,03,52,-2.20
2012,03,22,03,53,-2.20
2012,03,22,03,54,-2.20
2012,03,22,03,55,-2.20
2012,03,22,03,56,-2.20
2012,03,22,03,57,-2.20
2012,03,22,03,58,-2.20
2012,03,22,03,59,-2.30
2012,03,22,04,00,-2.30
2012,03,22,04,01,-2.30
2012,03,22,04,02,-2.30
2012,03,22,04,03,-2.30
2012,03,22,04,04,-2.30
2012,03,22,04,05,-2.30
2012,03,22,04,06,-2.30
2012,03,22,04,07,-2.40
2012,03,22,04,08,-2.40
2012,03,22,04,09,-2.40
2012,03,22,04,10,-2.40
2012,03,22,04,11,-2.40
2012,03,22,04,12,-2.40
2012,03,22,04,13,-2.40
2012,03,22,04,14,-2.40
2012,03,22,04,15,-2.40
2012,03,22,04,16,-2.40
2012,03,22,04,17,-2.40
2012,03,22,04,18,-2.40
2012,03,22,04,19,-2.40
2012,03,22,04,20,-2.40
2012,03,22,04,21,-2.40
2012,03,22,04,22,-2.40
2012,03,22,04,23,-2.40
2012,03,22,04,24,-2.40
2012,03,22,04,25,-2.40
2012,03,22,04,26,-2.40
2012,03,22,04,27,-2.40
2012,03,22,04,28,-2.40
2012,03,22,04,29,-2.40
2012,03,22,04,30,-2.40
2012,03,22,04,31,-2.40
2012,03,22,04,32,-2.40
2012,03,22,04,33,-2.50
2012,03,22,04,34,-2.50
2012,03,22,04,35,-2.40
2012,03,22,04,36,-2.40
2012,03,22,04,37,-2.40
2012,03,22,04,38,-2.40
2012,03,22,04,39,-2.50
2012,03,22,04,40,-2.40
2012,03,22,04,41,-2.50
2012,03,22,04,42,-2.50
2012,03,22,04,43,-2.50
2012,03,22,04,44,-2.50
2012,03,22,04,45,-2.50
2012,03,22,04,46,-2.50
2012,03,22,04,47,-2.50
2012,03,22,04,48,-2.50
2012,03,22,04,49,-2.50
2012,03,22,04,50,-2.50
2012,03,22,04,51,-2.50
2012,03,22,04,52,-2.50
2012,03,22,04,53,-2.50
2012,03,22,04,54,-2.60
2012,03,22,04,55,-2.50
2012,03,22,04,56,-2.50
2012,03,22,04,57,-2.50
2012,03,22,04,58,-2.50
2012,03,22,04,59,-2.50
2012,03,22,05,00,-2.60
2012,03,22,05,01,-2.60
2012,03,22,05,02,-2.60
2012,03,22,05,03,-2.60
2012,03,22,05,04,-2.60
2012,03,22,05,05,-2.60
2012,03,22,05,06,-2.60
2012,03,22,05,07,-2.60
2012,03,22,05,08,-2.60
2012,03,22,05,09,-2.60
2012,03,22,05,10,-2.60
2012,03,22,05,11,-2.60
2012,03,22,05,12,-2.60
2012,03,22,05,13,-2.60
2012,03,22,05,14,-2.60
2012,03,22,05,15,-2.60
2012,03,22,05,16,-2.60
2012,03,22,05,17,-2.60
2012,03,22,05,18,-2.60
2012,03,22,05,19,-2.60
2012,03,22,05,20,-2.60
2012,03,22,05,21,-2.60
2012,03,22,05,22,-2.60
2012,03,22,05,23,-2.70
2012,03,22,05,24,-2.70
2012,03,22,05,25,-2.70
2012,03,22,05,26,-2.70
2012,03,22,05,27,-2.70
2012,03,22,05,28,-2.70
2012,03,22,05,29,-2.70
2012,03,22,05,30,-2.70
2012,03,22,05,31,-2.70
2012,03,22,05,32,-2.70
2012,03,22,05,33,-2.70
2012,03,22,05,34,-2.70
2012,03,22,05,35,-2.70
2012,03,22,05,36,-2.70
2012,03,22,05,37,-2.70
2012,03,22,05,38,-2.70
2012,03,22,05,39,-2.70
2012,03,22,05,40,-2.70
2012,03,22,05,41,-2.70
2012,03,22,05,42,-2.70
2012,03,22,05,43,-2.70
2012,03,22,05,44,-2.70
2012,03,22,05,45,-2.70
2012,03,22,05,46,-2.70
2012,03,22,05,47,-2.70
2012,03,22,05,48,-2.70
2012,03,22,05,49,-2.70
2012,03,22,05,50,-2.80
2012,03,22,05,51,-2.80
2012,03,22,05,52,-2.80
2012,03,22,05,53,-2.80
2012,03,22,05,54,-2.80
2012,03,22,05,55,-2.80
2012,03,22,05,56,-2.80
2012,03,22,05,57,-2.80
2012,03,22,05,58,-2.80
2012,03,22,05,59,-2.80
2012,03,22,06,00,-2.80
2012,03,22,06,01,-2.80
2012,03,22,06,02,-2.80
2012,03,22,06,03,-2.80
2012,03,22,06,04,-2.80
2012,03,22,06,05,-2.80
2012,03,22,06,06,-2.80
2012,03,22,06,07,-2.80
2012,03,22,06,08,-2.80
2012,03,22,06,09,-2.80
2012,03,22,06,10,-2.80
2012,03,22,06,11,-2.80
2012,03,22,06,12,-2.80
2012,03,22,06,13,-2.80
2012,03,22,06,14,-2.80
2012,03,22,06,15,-2.80
2012,03,22,06,16,-2.90
2012,03,22,06,17,-2.90
2012,03,22,06,18,-2.90
2012,03,22,06,19,-2.90
2012,03,22,06,20,-2.90
2012,03,22,06,21,-2.90
2012,03,22,06,22,-2.90
2012,03,22,06,23,-2.90
2012,03,22,06,24,-2.90
2012,03,22,06,25,-2.90
2012,03,22,06,26,-2.90
2012,03,22,06,27,-2.90
2012,03,22,06,28,-2.90
2012,03,22,06,29,-2.90
2012,03,22,06,30,-2.90
2012,03,22,06,31,-2.90
2012,03,22,06,32,-2.90
2012,03,22,06,33,-2.90
2012,03,22,06,34,-2.90
2012,03,22,06,35,-2.90
2012,03,22,06,36,-2.90
2012,03,22,06,37,-2.90
2012,03,22,06,38,-2.90
2012,03,22,06,39,-2.90
2012,03,22,06,40,-2.90
2012,03,22,06,41,-2.90
2012,03,22,06,42,-2.90
2012,03,22,06,43,-2.90
2012,03,22,06,44,-3.00
2012,03,22,06,45,-2.90
2012,03,22,06,46,-2.90
2012,03,22,06,47,-2.90
2012,03,22,06,48,-2.90
2012,03,22,06,49,-2.90
2012,03,22,06,50,-3.00
2012,03,22,06,51,-2.90
2012,03,22,06,52,-3.00
2012,03,22,06,53,-3.00
2012,03,22,06,54,-2.90
2012,03,22,06,55,-2.90
2012,03,22,06,56,-2.90
2012,03,22,06,57,-2.90
2012,03,22,06,58,-2.90
2012,03,22,06,59,-2.90
2012,03,22,07,00,-2.90
2012,03,22,07,01,-2.90
2012,03,22,07,02,-2.90
2012,03,22,07,03,-2.90
2012,03,22,07,04,-2.90
2012,03,22,07,05,-2.90
2012,03,22,07,06,-2.90
2012,03,22,07,07,-2.90
2012,03,22,07,08,-2.80
2012,03,22,07,09,-2.80
2012,03,22,07,10,-2.80
2012,03,22,07,11,-2.80
2012,03,22,07,12,-2.80
2012,03,22,07,13,-2.80
2012,03,22,07,14,-2.80
2012,03,22,07,15,-2.80
2012,03,22,07,16,-2.80
2012,03,22,07,17,-2.80
2012,03,22,07,18,-2.80
2012,03,22,07,19,-2.80
2012,03,22,07,20,-2.80
2012,03,22,07,21,-2.80
2012,03,22,07,22,-2.70
2012,03,22,07,23,-2.70
2012,03,22,07,24,-2.70
2012,03,22,07,25,-2.70
2012,03,22,07,26,-2.70
2012,03,22,07,27,-2.70
2012,03,22,07,28,-2.70
2012,03,22,07,29,-2.70
2012,03,22,07,30,-2.70
2012,03,22,07,31,-2.70
2012,03,22,07,32,-2.70
2012,03,22,07,33,-2.70
2012,03,22,07,34,-2.70
2012,03,22,07,35,-2.70
2012,03,22,07,36,-2.70
2012,03,22,07,37,-2.70
2012,03,22,07,38,-2.70
2012,03,22,07,39,-2.70
2012,03,22,07,40,-2.70
2012,03,22,07,41,-2.70
2012,03,22,07,42,-2.70
2012,03,22,07,43,-2.70
2012,03,22,07,44,-2.70
2012,03,22,07,45,-2.70
2012,03,22,07,46,-2.60
2012,03,22,07,47,-2.60
2012,03,22,07,48,-2.60
2012,03,22,07,49,-2.60
2012,03,22,07,50,-2.60
2012,03,22,07,51,-2.60
2012,03,22,07,52,-2.60
2012,03,22,07,53,-2.60
2012,03,22,07,54,-2.50
2012,03,22,07,55,-2.50
2012,03,22,07,56,-2.50
2012,03,22,07,57,-2.40
2012,03,22,07,58,-2.40
2012,03,22,07,59,-2.40
2012,03,22,08,00,-2.40
2012,03,22,08,01,-2.40
2012,03,22,08,02,-2.40
2012,03,22,08,03,-2.40
2012,03,22,08,04,-2.30
2012,03,22,08,05,-2.30
2012,03,22,08,06,-2.30
2012,03,22,08,07,-2.30
2012,03,22,08,08,-2.20
2012,03,22,08,09,-2.20
2012,03,22,08,10,-2.20
2012,03,22,08,11,-2.20
2012,03,22,08,12,-2.10
2012,03,22,08,13,-2.10
2012,03,22,08,14,-2.00
2012,03,22,08,15,-2.00
2012,03,22,08,16,-2.00
2012,03,22,08,17,-2.00
2012,03,22,08,18,-1.90
2012,03,22,08,19,-1.90
2012,03,22,08,20,-1.80
2012,03,22,08,21,-1.80
2012,03,22,08,22,-1.80
2012,03,22,08,23,-1.80
2012,03,22,08,24,-1.70
2012,03,22,08,25,-1.70
2012,03,22,08,26,-1.70
2012,03,22,08,27,-1.70
2012,03,22,08,28,-1.70
2012,03,22,08,29,-1.60
2012,03,22,08,30,-1.60
2012,03,22,08,31,-1.50
2012,03,22,08,32,-1.50
2012,03,22,08,33,-1.40
2012,03,22,08,34,-1.40
2012,03,22,08,35,-1.30
2012,03,22,08,36,-1.30
2012,03,22,08,37,-1.30
2012,03,22,08,38,-1.20
2012,03,22,08,39,-1.20
2012,03,22,08,40,-1.10
2012,03,22,08,41,-1.10
2012,03,22,08,42,-1.00
2012,03,22,08,43,-1.00
2012,03,22,08,44,-0.90
2012,03,22,08,45,-0.90
2012,03,22,08,46,-0.80
2012,03,22,08,47,-0.80
2012,03,22,08,48,-0.70
2012,03,22,08,49,-0.60
2012,03,22,08,50,-0.50
2012,03,22,08,51,-0.50
2012,03,22,08,52,-0.40
2012,03,22,08,53,-0.30
2012,03,22,08,54,-0.30
2012,03,22,08,55,-0.20
2012,03,22,08,56,-0.20
2012,03,22,08,57,-0.10
2012,03,22,08,58,0.00
2012,03,22,08,59,0.00
2012,03,22,09,00,0.10
2012,03,22,09,01,0.10
2012,03,22,09,02,0.10
2012,03,22,09,03,0.20
2012,03,22,09,04,0.20
2012,03,22,09,05,0.20
2012,03,22,09,06,0.30
2012,03,22,09,07,0.30
2012,03,22,09,08,0.40
2012,03,22,09,09,0.50
2012,03,22,09,10,0.60
2012,03,22,09,11,0.60
2012,03,22,09,12,0.70
2012,03,22,09,13,0.80
2012,03,22,09,14,0.90
2012,03,22,09,15,1.00
2012,03,22,09,16,1.10
2012,03,22,09,17,1.30
2012,03,22,09,18,1.30
2012,03,22,09,19,1.40
2012,03,22,09,20,1.50
2012,03,22,09,21,1.70
2012,03,22,09,22,1.90
2012,03,22,09,23,2.00
2012,03,22,09,24,2.20
2012,03,22,09,25,2.20
2012,03,22,09,26,2.30
2012,03,22,09,27,2.40
2012,03,22,09,28,2.50
2012,03,22,09,29,2.60
2012,03,22,09,30,2.60
2012,03,22,09,31,2.60
2012,03,22,09,32,2.60
2012,03,22,09,33,2.70
2012,03,22,09,34,2.70
2012,03,22,09,35,2.70
2012,03,22,09,36,2.70
2012,03,22,09,37,2.80
2012,03,22,09,38,2.80
2012,03,22,09,39,2.80
2012,03,22,09,40,2.80
2012,03,22,09,41,2.80
2012,03,22,09,42,2.90
2012,03,22,09,43,2.90
2012,03,22,09,44,2.90
2012,03,22,09,45,3.00
2012,03,22,09,46,3.00
2012,03,22,09,47,3.00
2012,03,22,09,48,3.10
2012,03,22,09,49,3.10
2012,03,22,09,50,3.10
2012,03,22,09,51,3.10
2012,03,22,09,52,3.20
2012,03,22,09,53,3.20
2012,03,22,09,54,3.20
2012,03,22,09,55,3.20
2012,03,22,09,56,3.30
2012,03,22,09,57,3.30
2012,03,22,09,58,3.30
2012,03,22,09,59,3.30
2012,03,22,10,00,3.30
2012,03,22,10,01,3.40
2012,03,22,10,02,3.40
2012,03,22,10,03,3.40
2012,03,22,10,04,3.50
2012,03,22,10,05,3.50
2012,03,22,10,06,3.50
2012,03,22,10,07,3.60
2012,03,22,10,08,3.60
2012,03,22,10,09,3.70
2012,03,22,10,10,3.80
2012,03,22,10,11,3.80
2012,03,22,10,12,3.90
2012,03,22,10,13,3.90
2012,03,22,10,14,4.00
2012,03,22,10,15,4.00
2012,03,22,10,16,4.10
2012,03,22,10,17,4.10
2012,03,22,10,18,4.20
2012,03,22,10,19,4.20
2012,03,22,10,20,4.20
2012,03,22,10,21,4.20
2012,03,22,10,22,4.20
2012,03,22,10,23,4.20
2012,03,22,10,24,4.20
2012,03,22,10,25,4.20
2012,03,22,10,26,4.20
2012,03,22,10,27,4.10
2012,03,22,10,28,4.10
2012,03,22,10,29,4.10
2012,03,22,10,30,4.10
2012,03,22,10,31,4.10
2012,03,22,10,32,4.10
2012,03,22,10,33,4.10
2012,03,22,10,34,4.10
2012,03,22,10,35,4.10
2012,03,22,10,36,4.00
2012,03,22,10,37,4.00
2012,03,22,10,38,4.00
2012,03,22,10,39,3.90
2012,03,22,10,40,3.90
2012,03,22,10,41,3.90
2012,03,22,10,42,3.90
2012,03,22,10,43,3.90
2012,03,22,10,44,3.90
2012,03,22,10,45,3.90
2012,03,22,10,46,3.90
2012,03,22,10,47,3.80
2012,03,22,10,48,3.80
2012,03,22,10,49,3.80
2012,03,22,10,50,3.80
2012,03,22,10,51,3.80
2012,03,22,10,52,3.70
2012,03,22,10,53,3.70
2012,03,22,10,54,3.70
2012,03,22,10,55,3.60
2012,03,22,10,56,3.60
2012,03,22,10,57,3.50
2012,03,22,10,58,3.50
2012,03,22,10,59,3.50
2012,03,22,11,00,3.50
2012,03,22,11,01,3.50
2012,03,22,11,02,3.40
2012,03,22,11,03,3.40
2012,03,22,11,04,3.40
2012,03,22,11,05,3.40
2012,03,22,11,06,3.40
2012,03,22,11,07,3.40
2012,03,22,11,08,3.40
2012,03,22,11,09,3.40
2012,03,22,11,10,3.40
2012,03,22,11,11,3.40
2012,03,22,11,12,3.50
2012,03,22,11,13,3.50
2012,03,22,11,14,3.50
2012,03,22,11,15,3.60
2012,03,22,11,16,3.60
2012,03,22,11,17,3.70
2012,03,22,11,18,3.80
2012,03,22,11,19,3.80
2012,03,22,11,20,3.90
2012,03,22,11,21,4.00
2012,03,22,11,22,4.00
2012,03,22,11,23,4.10
2012,03,22,11,24,4.10
2012,03,22,11,25,4.10
2012,03,22,11,26,4.10
2012,03,22,11,27,4.10
2012,03,22,11,28,4.10
2012,03,22,11,29,4.10
2012,03,22,11,30,4.10
2012,03,22,11,31,4.10
2012,03,22,11,32,4.10
2012,03,22,11,33,4.10
2012,03,22,11,34,4.10
2012,03,22,11,35,4.10
2012,03,22,11,36,4.20
2012,03,22,11,37,4.20
2012,03,22,11,38,4.20
2012,03,22,11,39,4.20
2012,03,22,11,40,4.20
2012,03,22,11,41,4.30
2012,03,22,11,42,4.30
2012,03,22,11,43,4.30
2012,03,22,11,44,4.30
2012,03,22,11,45,4.30
2012,03,22,11,46,4.30
2012,03,22,11,47,4.30
2012,03,22,11,48,4.30
2012,03,22,11,49,4.30
2012,03,22,11,50,4.30
2012,03,22,11,51,4.30
2012,03,22,11,52,4.30
2012,03,22,11,53,4.30
2012,03,22,11,54,4.30
2012,03,22,11,55,4.30
2012,03,22,11,56,4.30
2012,03,22,11,57,4.30
2012,03,22,11,58,4.30
2012,03,22,11,59,4.40
2012,03,22,12,00,4.40
2012,03,22,12,01,4.40
2012,03,22,12,02,4.40
2012,03,22,12,03,4.40
2012,03,22,12,04,4.50
2012,03,22,12,05,4.50
2012,03,22,12,06,4.60
2012,03,22,12,07,4.60
2012,03,22,12,08,4.80
2012,03,22,12,09,4.80
2012,03,22,12,10,4.90
2012,03,22,12,11,4.90
2012,03,22,12,12,5.00
2012,03,22,12,13,5.00
2012,03,22,12,14,5.10
2012,03,22,12,15,5.10
2012,03,22,12,16,5.20
2012,03,22,12,17,5.20
2012,03,22,12,18,5.20
2012,03,22,12,19,5.30
2012,03,22,12,20,5.20
2012,03,22,12,21,5.20
2012,03,22,12,22,5.20
2012,03,22,12,23,5.20
2012,03,22,12,24,5.20
2012,03,22,12,25,5.20
2012,03,22,12,26,5.20
2012,03,22,12,27,5.20
2012,03,22,12,28,5.20
2012,03,22,12,29,5.20
2012,03,22,12,30,5.20
2012,03,22,12,31,5.20
2012,03,22,12,32,5.20
2012,03,22,12,33,5.20
2012,03,22,12,34,5.10
2012,03,22,12,35,5.10
2012,03,22,12,36,5.10
2012,03,22,12,37,5.00
2012,03,22,12,38,4.90
2012,03,22,12,39,4.90
2012,03,22,12,40,4.80
2012,03,22,12,41,4.80
2012,03,22,12,42,4.80
2012,03,22,12,43,4.80
2012,03,22,12,44,4.80
2012,03,22,12,45,4.80
2012,03,22,12,46,4.80
2012,03,22,12,47,4.80
2012,03,22,12,48,4.80
2012,03,22,12,49,4.80
2012,03,22,12,50,4.80
2012,03,22,12,51,4.90
2012,03,22,12,52,4.90
2012,03,22,12,53,4.90
2012,03,22,12,54,4.90
2012,03,22,12,55,4.90
2012,03,22,12,56,4.90
2012,03,22,12,57,4.90
2012,03,22,12,58,4.90
2012,03,22,12,59,4.90
2012,03,22,13,00,4.80
2012,03,22,13,01,4.80
2012,03,22,13,02,4.80
2012,03,22,13,03,4.80
2012,03,22,13,04,4.80
2012,03,22,13,05,4.90
2012,03,22,13,06,4.90
2012,03,22,13,07,5.00
2012,03,22,13,08,5.00
2012,03,22,13,09,5.00
2012,03,22,13,10,5.10
2012,03,22,13,11,5.10
2012,03,22,13,12,5.10
2012,03,22,13,13,5.20
2012,03,22,13,14,5.20
2012,03,22,13,15,5.20
2012,03,22,13,16,5.30
2012,03,22,13,17,5.30
2012,03,22,13,18,5.30
2012,03,22,13,19,5.30
2012,03,22,13,20,5.20
2012,03,22,13,21,5.20
2012,03,22,13,22,5.10
2012,03,22,13,23,5.10
2012,03,22,13,24,5.00
2012,03,22,13,25,4.90
2012,03,22,13,26,4.90
2012,03,22,13,27,4.90
2012,03,22,13,28,4.80
2012,03,22,13,29,4.80
2012,03,22,13,30,4.80
2012,03,22,13,31,4.80
2012,03,22,13,32,4.80
2012,03,22,13,33,4.80
2012,03,22,13,34,4.80
2012,03,22,13,35,4.80
2012,03,22,13,36,4.80
2012,03,22,13,37,4.80
2012,03,22,13,38,4.80
2012,03,22,13,39,4.90
2012,03,22,13,40,4.90
2012,03,22,13,41,5.00
2012,03,22,13,42,5.00
2012,03,22,13,43,5.00
2012,03,22,13,44,5.00
2012,03,22,13,45,5.10
2012,03,22,13,46,5.10
2012,03,22,13,47,5.10
2012,03,22,13,48,5.20
2012,03,22,13,49,5.20
2012,03,22,13,50,5.20
2012,03,22,13,51,5.30
2012,03,22,13,52,5.40
2012,03,22,13,53,5.50
2012,03,22,13,54,5.50
2012,03,22,13,55,5.50
2012,03,22,13,56,5.50
2012,03,22,13,57,5.40
2012,03,22,13,58,5.30
2012,03,22,13,59,5.30
2012,03,22,14,00,5.30
2012,03,22,14,01,5.30
2012,03,22,14,02,5.30
2012,03,22,14,03,5.30
2012,03,22,14,04,5.30
2012,03,22,14,05,5.30
2012,03,22,14,06,5.30
2012,03,22,14,07,5.30
2012,03,22,14,08,5.30
2012,03,22,14,09,5.30
2012,03,22,14,10,5.30
2012,03,22,14,11,5.30
2012,03,22,14,12,5.40
2012,03,22,14,13,5.40
2012,03,22,14,14,5.40
2012,03,22,14,15,5.40
2012,03,22,14,16,5.40
2012,03,22,14,17,5.40
2012,03,22,14,18,5.40
2012,03,22,14,19,5.40
2012,03,22,14,20,5.50
2012,03,22,14,21,5.50
2012,03,22,14,22,5.60
2012,03,22,14,23,5.60
2012,03,22,14,24,5.60
2012,03,22,14,25,5.70
2012,03,22,14,26,5.70
2012,03,22,14,27,5.80
2012,03,22,14,28,5.80
2012,03,22,14,29,5.80
2012,03,22,14,30,5.80
2012,03,22,14,31,5.80
2012,03,22,14,32,5.80
2012,03,22,14,33,5.70
2012,03,22,14,34,5.70
2012,03,22,14,35,5.60
2012,03,22,14,36,5.60
2012,03,22,14,37,5.50
2012,03,22,14,38,5.50
2012,03,22,14,39,5.40
2012,03,22,14,40,5.30
2012,03,22,14,41,5.30
2012,03,22,14,42,5.30
2012,03,22,14,43,5.30
2012,03,22,14,44,5.30
2012,03,22,14,45,5.30
2012,03,22,14,46,5.30
2012,03,22,14,47,5.30
2012,03,22,14,48,5.20
2012,03,22,14,49,5.20
2012,03,22,14,50,5.20
2012,03,22,14,51,5.20
2012,03,22,14,52,5.20
2012,03,22,14,53,5.20
2012,03,22,14,54,5.20
2012,03,22,14,55,5.20
2012,03,22,14,56,5.20
2012,03,22,14,57,5.20
2012,03,22,14,58,5.20
2012,03,22,14,59,5.20
2012,03,22,15,00,5.20
2012,03,22,15,01,5.20
2012,03,22,15,02,5.20
2012,03,22,15,03,5.20
2012,03,22,15,04,5.20
2012,03,22,15,05,5.10
2012,03,22,15,06,5.10
2012,03,22,15,07,5.10
2012,03,22,15,08,5.20
2012,03,22,15,09,5.20
2012,03,22,15,10,5.20
2012,03,22,15,11,5.20
2012,03,22,15,12,5.20
2012,03,22,15,13,5.20
2012,03,22,15,14,5.20
2012,03,22,15,15,5.20
2012,03,22,15,16,5.20
2012,03,22,15,17,5.20
2012,03,22,15,18,5.30
2012,03,22,15,19,5.30
2012,03,22,15,20,5.30
2012,03,22,15,21,5.30
2012,03,22,15,22,5.30
2012,03,22,15,23,5.30
2012,03,22,15,24,5.40
2012,03,22,15,25,5.40
2012,03,22,15,26,5.40
2012,03,22,15,27,5.40
2012,03,22,15,28,5.40
2012,03,22,15,29,5.50
2012,03,22,15,30,5.50
2012,03,22,15,31,5.50
2012,03,22,15,32,5.60
2012,03,22,15,33,5.60
2012,03,22,15,34,5.60
2012,03,22,15,35,5.60
2012,03,22,15,36,5.70
2012,03,22,15,37,5.70
2012,03,22,15,38,5.70
2012,03,22,15,39,5.80
2012,03,22,15,40,5.80
2012,03,22,15,41,5.80
2012,03,22,15,42,5.90
2012,03,22,15,43,5.90
2012,03,22,15,44,6.00
2012,03,22,15,45,6.00
2012,03,22,15,46,6.10
2012,03,22,15,47,6.10
2012,03,22,15,48,6.10
2012,03,22,15,49,6.20
2012,03,22,15,50,6.20
2012,03,22,15,51,6.20
2012,03,22,15,52,6.20
2012,03,22,15,53,6.20
2012,03,22,15,54,6.30
2012,03,22,15,55,6.30
2012,03,22,15,56,6.30
2012,03,22,15,57,6.30
2012,03,22,15,58,6.30
2012,03,22,15,59,6.30
2012,03,22,16,00,6.30
2012,03,22,16,01,6.30
2012,03,22,16,02,6.30
2012,03,22,16,03,6.30
2012,03,22,16,04,6.30
2012,03,22,16,05,6.30
2012,03,22,16,06,6.30
2012,03,22,16,07,6.30
2012,03,22,16,08,6.30
2012,03,22,16,09,6.30
2012,03,22,16,10,6.30
2012,03,22,16,11,6.30
2012,03,22,16,12,6.30
2012,03,22,16,13,6.30
2012,03,22,16,14,6.30
2012,03,22,16,15,6.30
2012,03,22,16,16,6.30
2012,03,22,16,17,6.30
2012,03,22,16,18,6.30
2012,03,22,16,19,6.30
2012,03,22,16,20,6.40
2012,03,22,16,21,6.40
2012,03,22,16,22,6.40
2012,03,22,16,23,6.40
2012,03,22,16,24,6.40
2012,03,22,16,25,6.40
2012,03,22,16,26,6.40
2012,03,22,16,27,6.40
2012,03,22,16,28,6.40
2012,03,22,16,29,6.40
2012,03,22,16,30,6.40
2012,03,22,16,31,6.40
2012,03,22,16,32,6.40
2012,03,22,16,33,6.40
2012,03,22,16,34,6.40
2012,03,22,16,35,6.40
2012,03,22,16,36,6.40
2012,03,22,16,37,6.40
2012,03,22,16,38,6.40
2012,03,22,16,39,6.40
2012,03,22,16,40,6.40
2012,03,22,16,41,6.30
2012,03,22,16,42,6.30
2012,03,22,16,43,6.30
2012,03,22,16,44,6.30
2012,03,22,16,45,6.30
2012,03,22,16,46,6.30
2012,03,22,16,47,6.30
2012,03,22,16,48,6.30
2012,03,22,16,49,6.30
2012,03,22,16,50,6.30
2012,03,22,16,51,6.30
2012,03,22,16,52,6.30
2012,03,22,16,53,6.30
2012,03,22,16,54,6.30
2012,03,22,16,55,6.40
2012,03,22,16,56,6.40
2012,03,22,16,57,6.40
2012,03,22,16,58,6.40
2012,03,22,16,59,6.50
2012,03,22,17,00,6.50
2012,03,22,17,01,6.50
2012,03,22,17,02,6.50
2012,03,22,17,03,6.50
2012,03,22,17,04,6.40
2012,03,22,17,05,6.40
2012,03,22,17,06,6.40
2012,03,22,17,07,6.40
2012,03,22,17,08,6.40
2012,03,22,17,09,6.40
2012,03,22,17,10,6.40
2012,03,22,17,11,6.40
2012,03,22,17,12,6.40
2012,03,22,17,13,6.40
2012,03,22,17,14,6.40
2012,03,22,17,15,6.40
2012,03,22,17,16,6.40
2012,03,22,17,17,6.40
2012,03,22,17,18,6.40
2012,03,22,17,19,6.40
2012,03,22,17,20,6.30
2012,03,22,17,21,6.40
2012,03,22,17,22,6.40
2012,03,22,17,23,6.40
2012,03,22,17,24,6.40
2012,03,22,17,25,6.40
2012,03,22,17,26,6.40
2012,03,22,17,27,6.40
2012,03,22,17,28,6.40
2012,03,22,17,29,6.40
2012,03,22,17,30,6.40
2012,03,22,17,31,6.40
2012,03,22,17,32,6.40
2012,03,22,17,33,6.40
2012,03,22,17,34,6.40
2012,03,22,17,35,6.40
2012,03,22,17,36,6.40
2012,03,22,17,37,6.40
2012,03,22,17,38,6.40
2012,03,22,17,39,6.40
2012,03,22,17,40,6.40
2012,03,22,17,41,6.30
2012,03,22,17,42,6.30
2012,03,22,17,43,6.30
2012,03,22,17,44,6.30